Location: Janeiro
(34.9957°N, 76.7652°W)
Time: 04:46:28
(UTC+00:00)

Cosmos 1954 Rocket - Pass Details

Date: 14 December 2019
Orbit: 751 x 782 km, 74.0° (Epoch: 28 January)

Event Time Altitude Azimuth Distance (km) Brightness Sun altitude
Rises 22:59:30 0° 195° (SSW) 3,184 7.7 -12.6°
Reaches altitude 10° 23:01:51 10° 195° (SSW) 2,264 6.9 -13.1°
Maximum altitude 23:06:59 89° 107° (ESE) 758 3.9 -14.1°
Drops below altitude 10° 23:12:11 10° 18° (NNE) 2,289 6.1 -15.1°
Enters shadow 23:12:56 - 18° (NNE) 2,581 6.4 -15.2°
